Orbital Elements at Epoch 2459000.5 (2020-May-31.0) TDB
Reference: JPL 14 (heliocentric ecliptic J2000)
Element | Value | Uncertainty (1-sigma) | Units |
e | .2792799039451829 | 5.9314e-08 | |
a | 2.181641312196731 | 1.8447e-08 | au |
q | 1.572352736083585 | 1.3562e-07 | au |
i | 8.246627768815905 | 6.7736e-06 | deg |
node | 351.7906264180939 | 3.4102e-05 | deg |
peri | 309.7748113925595 | 3.7898e-05 | deg |
M | 78.24375896022769 | 9.5607e-06 | deg |
tp | 2458744.688151448419 (2019-Sep-18.18815145) | 3.1521e-05 | TDB |
period | 1176.991835545386 3.22 | 1.4929e-05 4.087e-08 | d yr |
n | .3058644836165628 | 3.8795e-09 | deg/d |
Q | 2.790929888309877 | 2.3599e-08 | au |
|
| | Orbit Determination Parameters
Additional Information
|